Powrót do katalogu

COSMOS 2251 DEB

LostLEO
NORAD 37278·DEBRIS·🇷🇺 Russia

Wystrzelony Jun 16, 1993 z Plesetsk Cosmodrome

Loading…

Następne Przeloty (najbliższe 24 godziny)

TLE

NieaktualneSource: Space-Track

Epoka: Jul 20, 2026, 15:37 UTC

1 37278U 93036BHS 26201.65097400  .00002001  00000-0  66864-3 0  9996
2 37278  73.7857 312.1101 0295524  96.4926 329.5834 14.16192457669418

Śledź COSMOS 2251 DEB w czasie rzeczywistym z AllMySat

Download on the App Store